Content
SEND FEEDBACK

Daily
Averages
Monthly
Summary
Cameroon

DOUALA, CAMEROON


Home > Africa > Cameroon
Elevation: 30 feet     Latitude: 04 00N     Longitude: 009 44E

WEATHER
 
SELECT A DAY
Number of Records: 123,404;   Date Range: 12/24/98 - 12/17/14
 
SHARE

PRINT THIS DATA

[ ← Previous Day ]
WEATHER ALMANAC - JANUARY 31, 2013
[ Next Day → ]
[ °C ]   °F
Weather ElementAverageHighLow
Temperature83.1 °F91.4 °F (1:00 pm)77 °F (5:00 am)
Dewpoint76.8 °F78.8 °F (5:00 pm)75 °F (1:00 pm)
Humidity81.8 %100 % (6:00 am)53 % (1:00 pm)
Barometer29.85 in29.89 in (1:00 am)29.80 in (3:00 pm)
Wind Speed2.5 mph11.5 mph (3:00 pm)
Weather ElementAverage
Visibility5.3 mi
Wind DirectionENE (78.3 °)

Weather ElementTotal
Precipitation---
Cooling Degree Days19.2 (Base 65)
Growing Degree Days34.2 (Base 50)
Averaged from 26 records on January 31, 2013
WEATHER CONDITIONS BREAKOUT
WIND DIRECTION BREAKOUT
WEATHER BY HOUR - JANUARY 31, 2013
[ °C ]   °F
Local TimeTemperatureDewpointHumidityBarometerVisibilityWind DirectionWind SpeedGust SpeedPrecipitationEventsConditions
1:00 AM78.0 °F77.0 °F97 %29.88 in6.0 miCalmMostly Cloudy
1:00 AM78.8 °F77.0 °F94 %29.89 in6.2 miCalmScattered Clouds
3:00 AM78.8 °F77.0 °F94 %29.86 in6.2 miCalmScattered Clouds
4:00 AM78.8 °F77.0 °F94 %29.83 in5.0 miCalmPartly Cloudy
5:00 AM77.0 °F75.2 °F94 %29.86 in3.7 miCalmScattered Clouds
6:00 AM77.0 °F77.0 °F100 %29.86 in2.5 miCalmPartly Cloudy
7:00 AM77.0 °F77.0 °F100 %29.86 in2.2 miCalmPartly Cloudy
7:00 AM78.0 °F77.0 °F95 %29.86 in2.0 miCalmMist
8:00 AM78.8 °F77.0 °F94 %29.86 in2.5 miCalmMostly Cloudy
9:00 AM80.6 °F77.0 °F89 %29.86 in3.7 miCalmPartly Cloudy
10:00 AM84.2 °F77.0 °F79 %29.89 in5.0 miCalmPartly Cloudy
11:00 AM87.8 °F77.0 °F70 %29.86 in6.2 miCalmPartly Cloudy
12:00 PM89.6 °F77.0 °F66 %29.86 in6.2 miCalmPartly Cloudy
1:00 PM91.4 °F75.2 °F59 %29.83 in6.2 miVariable4.6 mphPartly Cloudy
1:00 PM90.0 °F75.0 °F53 %29.85 in6.0 miSW (220°)6.9 mphMostly Cloudy
2:00 PM91.4 °F75.2 °F59 %29.83 in6.2 miWest (260°)6.9 mphScattered Clouds
3:00 PM91.4 °F77.0 °F63 %29.80 in6.2 miSW (220°)11.5 mphScattered Clouds
4:00 PM89.6 °F77.0 °F66 %29.80 in6.2 miSW (220°)9.2 mphMostly Cloudy
5:00 PM87.8 °F78.8 °F75 %29.80 in6.2 miSW (220°)9.2 mphMostly Cloudy
6:00 PM86.0 °F77.0 °F74 %29.80 in6.2 miSW (220°)6.9 mphMostly Cloudy
7:00 PM84.2 °F77.0 °F79 %29.83 in6.2 miWest (260°)4.6 mphMostly Cloudy
7:00 PM83.0 °F77.0 °F77 %29.83 in6.0 miWest (260°)4.6 mphPartly Cloudy
8:00 PM82.4 °F77.0 °F84 %29.86 in6.2 miCalmMostly Cloudy
9:00 PM82.4 °F77.0 °F84 %29.89 in6.2 miCalmMostly Cloudy
10:00 PM78.8 °F77.0 °F94 %29.89 in6.2 miCalmPartly Cloudy
11:00 PM78.8 °F77.0 °F94 %29.89 in6.2 miCalmPartly Cloudy
Hourly data recorded from FKKD, located miles away from Douala, Cameroon







STORIES FROM OUR PARTNERS